This is the latest recevied weather packets stored in our database for station/object YO8SDE-8. If no packets are shown the sender has not sent any weather packets the latest 10 day(s).
| Time | Temp. | Humidity | Pressure | Rain* | Wind** | Luminosity | Snow |
|---|---|---|---|---|---|---|---|
| 1777588866 | 2.78° C | 59% | 1015.7 hPa | 0 mm | - | - | - |
| 1777588566 | 2.78° C | 58% | 1015.7 hPa | 0 mm | - | - | - |
| 1777588266 | 3.33° C | 59% | 1015.8 hPa | 0 mm | - | - | - |
| 1777587966 | 3.33° C | 60% | 1015.8 hPa | 0 mm | - | - | - |
| 1777587666 | 2.78° C | 60% | 1015.8 hPa | 0 mm | - | - | - |
| 1777587366 | 2.78° C | 62% | 1015.6 hPa | 0 mm | - | - | - |
| 1777587066 | 2.22° C | 59% | 1015.6 hPa | 0 mm | - | - | - |
| 1777586766 | 2.78° C | 58% | 1015.6 hPa | 0 mm | - | - | - |
| 1777586466 | 3.33° C | 57% | 1015.6 hPa | 0 mm | - | - | - |
| 1777586166 | 3.89° C | 57% | 1015.6 hPa | 0 mm | - | - | - |
| 1777585866 | 3.89° C | 57% | 1015.6 hPa | 0 mm | - | - | - |
| 1777585566 | 3.89° C | 58% | 1015.7 hPa | 0 mm | - | - | - |
| 1777585266 | 3.89° C | 58% | 1015.8 hPa | 0 mm | - | - | - |
| 1777584966 | 3.89° C | 58% | 1015.8 hPa | 0 mm | - | - | - |
| 1777584666 | 3.89° C | 58% | 1015.9 hPa | 0 mm | - | - | - |
| 1777584366 | 3.33° C | 58% | 1015.8 hPa | 0 mm | - | - | - |
| 1777584066 | 3.33° C | 59% | 1015.8 hPa | 0 mm | - | - | - |
| 1777583766 | 3.33° C | 57% | 1015.7 hPa | 0 mm | - | - | - |
| 1777583466 | 3.89° C | 55% | 1015.7 hPa | 0 mm | - | - | - |
| 1777583166 | 3.89° C | 56% | 1015.7 hPa | 0 mm | - | - | - |
| 1777582866 | 3.89° C | 57% | 1015.7 hPa | 0 mm | - | - | - |
| 1777582566 | 3.89° C | 57% | 1015.7 hPa | 0 mm | - | - | - |
| 1777582266 | 3.89° C | 57% | 1015.7 hPa | 0 mm | - | - | - |
| 1777581966 | 3.89° C | 57% | 1015.7 hPa | 0 mm | - | - | - |
| 1777581666 | 4.44° C | 56% | 1015.6 hPa | 0 mm | - | - | - |
* Rain latest hour (hover to see other rain measurements)
** Current wind speed in m/s (hover to see current wind gust speed)